Wright-Patt AFB, OH

3:01 PM EDT on June 25, 2017 (GMT -0400)
Wright-Patterson Air Force Base

Weather History for KFFO - December, 2013

Change the Weather History Date:

Sunday, December 22, 2013

  Actual Average Record
Temperature  
Mean Temperature 50 °F -  
Max Temperature 61 °F 35 °F 61 °F (2013)
Min Temperature 38 °F 20 °F 1 °F (2000)
Degree Days  
Heating Degree Days 16    
Moisture  
Dew Point 48 °F    
Average Humidity 87    
Maximum Humidity 100    
Minimum Humidity 68    
Precipitation  
Precipitation 0.56 in - - ()
Sea Level Pressure  
Sea Level Pressure 29.78 in    
Wind  
Wind Speed 14 mph (SW)    
Max Wind Speed 30 mph    
Max Gust Speed 38 mph    
Visibility 8 miles    
Events Rain    
Averages and records for this station are not official NWS values.
T = Trace of Precipitation, MM = Missing Value Source: NWS Daily Summary

Daily Weather History Graph

Daily Weather History Graph

Search for Another Location

Airport or City:

Trip Planner

Search our weather history database for the weather conditions in past years. The results will help you decide how hot, cold, wet, or windy it might be!

Date:

Astronomy

Dec. 22, 2013 Rise Set
Actual Time 7:54 AM EST 5:15 PM EST
Civil Twilight 7:24 AM EST 5:45 PM EST
Nautical Twilight 6:50 AM EST 6:19 PM EST
Astronomical Twilight 6:17 AM EST 6:52 PM EST
Moon 10:26 PM EST (12/22) 10:50 AM EST (12/22)
Length of Visible Light 10h 21m
Length of Day
9h 20m
Waning Gibbous, 77% of the Moon is Illuminated
Dec 22
Waning Gibbous
Dec 25
Last Quarter
Jan 1
New
Jan 7
First Quarter
Jan 15
Full

Hourly Weather History & Observations

Time (EST) Temp. Windchill Dew Point Humidity Pressure Visibility Wind Dir Wind Speed Gust Speed Precip Events Conditions
12:01 AM 60.8 °F - 59.0 °F 94% 29.56 in 5.0 mi WSW 8.1 mph - N/A Rain Rain
12:42 AM 60.8 °F - 59.0 °F 94% 29.59 in 7.0 mi WSW 5.8 mph - N/A Rain Rain
12:51 AM 59.0 °F - 59.0 °F 100% 29.59 in 4.0 mi SW 5.8 mph - N/A Rain Rain
12:58 AM 59.5 °F - 58.6 °F 97% 29.61 in 5.0 mi SW 8.1 mph - 0.28 in Rain Rain
1:08 AM 60.8 °F - 60.8 °F 100% 29.62 in 5.0 mi SW 13.8 mph - N/A Rain Rain
1:18 AM 60.8 °F - 60.8 °F 100% 29.62 in 7.0 mi SW 15.0 mph - N/A Rain Rain
1:28 AM 60.8 °F - 60.8 °F 100% 29.60 in 8.0 mi SSW 11.5 mph - N/A Rain Light Rain
1:58 AM 61.5 °F - 59.9 °F 94% 29.59 in 10.0 mi SSE 15.0 mph - 0.14 in Rain Light Rain
2:38 AM 60.8 °F - 59.0 °F 94% 29.58 in 10.0 mi SSE 18.4 mph - N/A Rain Light Rain
2:48 AM 60.8 °F - 59.0 °F 94% 29.58 in 10.0 mi South 17.3 mph - N/A Rain Light Rain
2:58 AM 61.0 °F - 58.8 °F 93% 29.58 in 10.0 mi SSE 18.4 mph 24.2 mph 0.08 in Rain Rain
3:18 AM 60.8 °F - 59.0 °F 94% 29.54 in 10.0 mi SSE 25.3 mph 33.4 mph N/A   Light Drizzle
3:58 AM 60.3 °F - 57.4 °F 90% 29.52 in 10.0 mi SSE 29.9 mph 38.0 mph 0.03 in Rain Light Rain
4:58 AM 60.4 °F - 56.1 °F 86% 29.57 in 10.0 mi SSW 21.9 mph 29.9 mph 0.00 in   Light Drizzle
5:18 AM 60.8 °F - 55.4 °F 82% 29.57 in 10.0 mi South 21.9 mph 29.9 mph N/A   Overcast
5:58 AM 60.4 °F - 55.9 °F 85% 29.57 in 10.0 mi South 18.4 mph 32.2 mph 0.00 in   Overcast
6:58 AM 59.9 °F - 55.9 °F 87% 29.60 in 10.0 mi South 20.7 mph 26.5 mph N/A   Overcast
7:08 AM 59.0 °F - 57.2 °F 94% 29.62 in 10.0 mi SSW 25.3 mph 32.2 mph N/A   Light Drizzle
7:28 AM 59.0 °F - 55.4 °F 88% 29.64 in 10.0 mi SW 19.6 mph 32.2 mph N/A   Overcast
7:39 AM 59.0 °F - 55.4 °F 88% 29.65 in 10.0 mi SW 15.0 mph 21.9 mph N/A   Light Drizzle
7:49 AM 59.0 °F - 55.4 °F 88% 29.67 in 10.0 mi SW 17.3 mph - N/A   Light Drizzle
7:58 AM 58.3 °F - 55.9 °F 92% 29.68 in 10.0 mi SW 18.4 mph - 0.02 in   Mostly Cloudy
8:08 AM 57.2 °F - 53.6 °F 88% 29.67 in 10.0 mi SW 26.5 mph 32.2 mph N/A   Mostly Cloudy
8:18 AM 57.2 °F - 51.8 °F 82% 29.68 in 10.0 mi SW 23.0 mph 29.9 mph N/A   Mostly Cloudy
8:28 AM 57.2 °F - 51.8 °F 82% 29.69 in 10.0 mi SW 25.3 mph 32.2 mph N/A   Mostly Cloudy
8:58 AM 56.1 °F - 51.1 °F 83% 29.70 in 10.0 mi SW 18.4 mph - N/A   Mostly Cloudy
9:58 AM 53.4 °F - 49.3 °F 86% 29.75 in 10.0 mi SW 13.8 mph - N/A   Scattered Clouds
10:58 AM 55.0 °F - 47.5 °F 76% 29.78 in 10.0 mi SW 18.4 mph 29.9 mph N/A   Mostly Cloudy
11:28 AM 53.6 °F - 46.4 °F 77% 29.81 in 10.0 mi SW 21.9 mph 29.9 mph N/A   Scattered Clouds
11:58 AM 52.0 °F - 45.0 °F 77% 29.83 in 10.0 mi SW 17.3 mph - N/A   Mostly Cloudy
12:38 PM 51.8 °F - 44.6 °F 76% 29.83 in 10.0 mi WSW 17.3 mph - N/A   Mostly Cloudy
12:58 PM 51.4 °F - 44.2 °F 76% 29.82 in 10.0 mi WSW 16.1 mph 25.3 mph N/A   Mostly Cloudy
1:58 PM 53.2 °F - 43.0 °F 68% 29.82 in 10.0 mi SW 19.6 mph - N/A   Mostly Cloudy
2:58 PM 52.2 °F - 42.3 °F 69% 29.85 in 10.0 mi WSW 13.8 mph - N/A   Mostly Cloudy
3:58 PM 48.2 °F - 40.1 °F 74% 29.88 in 10.0 mi WSW 16.1 mph 24.2 mph N/A   Mostly Cloudy
4:58 PM 46.6 °F - 40.1 °F 78% 29.90 in 10.0 mi WSW 12.7 mph 23.0 mph N/A   Overcast
5:18 PM 46.4 °F 41.1 °F 39.2 °F 76% 29.91 in 10.0 mi WSW 11.5 mph - N/A   Overcast
5:58 PM 46.2 °F 39.0 °F 40.1 °F 79% 29.93 in 10.0 mi SW 18.4 mph - N/A   Overcast
6:58 PM 45.9 °F 42.3 °F 40.3 °F 81% 29.93 in 10.0 mi WSW 6.9 mph - N/A   Overcast
7:28 PM 46.4 °F 41.9 °F 41.0 °F 81% 29.95 in 10.0 mi WSW 9.2 mph - N/A   Overcast
7:58 PM 44.2 °F 38.8 °F 41.4 °F 90% 29.96 in 10.0 mi West 10.4 mph - 0.00 in Rain Light Rain
8:17 PM 42.8 °F 36.6 °F 41.0 °F 93% 29.99 in 10.0 mi WSW 11.5 mph - N/A   Overcast
8:28 PM 42.8 °F 37.5 °F 39.2 °F 87% 29.99 in 3.0 mi West 9.2 mph - N/A Rain Light Rain
8:48 PM 42.8 °F 36.2 °F 39.2 °F 87% 29.99 in 2.0 mi West 12.7 mph - N/A Rain Light Rain
8:58 PM 41.4 °F 35.2 °F 39.4 °F 93% 30.00 in 2.0 mi West 10.4 mph - 0.00 in Rain Light Rain
9:33 PM 41.0 °F 35.8 °F 39.2 °F 93% 29.98 in 10.0 mi West 8.1 mph - N/A   Light Drizzle
9:49 PM 39.2 °F 32.5 °F 37.4 °F 93% 30.00 in 3.0 mi WNW 10.4 mph - N/A   Light Drizzle
9:58 PM 39.2 °F 32.5 °F 37.4 °F 93% 30.02 in 3.0 mi West 10.4 mph - 0.00 in   Light Drizzle
10:18 PM 39.2 °F 34.2 °F 37.4 °F 93% 29.99 in 4.0 mi West 6.9 mph - N/A   Light Drizzle
10:48 PM 39.2 °F 34.2 °F 35.6 °F 87% 30.00 in 6.0 mi West 6.9 mph - N/A   Light Drizzle
10:58 PM 38.8 °F 33.8 °F 36.0 °F 89% 30.01 in 4.0 mi West 6.9 mph - 0.01 in   Light Drizzle
11:18 PM 39.2 °F 33.0 °F 33.8 °F 81% 30.01 in 7.0 mi WSW 9.2 mph - N/A   Overcast
11:28 PM 39.2 °F 32.5 °F 35.6 °F 87% 30.02 in 10.0 mi WSW 10.4 mph - N/A   Overcast
11:58 PM 38.5 °F 31.6 °F 34.5 °F 86% 30.05 in 10.0 mi WSW 10.4 mph - 0.00 in   Overcast